QPF
0.02 0.01 0.02 0.03 0.04 0.03 0.02 0.02 0.03 0.05 0.05 0.06 0.06 0.07 0.07 0.07 0.07 0.06 0.07 0.11 0.12 0.12 0.14 0.11 0.06 0.07 0.08 0.08 0.07 0.07 0.06 0.05 0.04 0.03 0.02 0.02 0.03 0.04 0.04 0.03 0.02 0.01 0.01
0.02 0.02 0.03 0.03 0.04 0.03 0.02 0.02 0.03 0.04 0.06 0.06 0.05 0.05 0.07 0.07 0.06 0.05 0.06 0.08 0.13 0.13 0.13 0.14 0.09 0.07 0.08 0.09 0.09 0.09 0.08 0.07 0.06 0.03 0.02 0.03 0.03 0.03 0.04 0.05 0.04 0.02 0.01
0.02 0.02 0.03 0.04 0.05 0.04 0.03 0.01 0.02 0.04 0.05 0.06 0.07 0.06 0.07 0.08 0.07 0.06 0.05 0.07 0.09 0.12 0.12 0.14 0.13 0.09 0.08 0.09 0.10 0.11 0.11 0.09 0.07 0.06 0.03 0.02 0.03 0.04 0.03 0.04 0.05 0.05 0.03
0.02 0.02 0.02 0.03 0.05 0.06 0.04 0.03 0.03 0.05 0.06 0.05 0.06 0.07 0.06 0.07 0.07 0.06 0.05 0.06 0.08 0.10 0.11 0.13 0.14 0.13 0.12 0.13 0.13 0.13 0.16 0.17 0.13 0.10 0.07 0.04 0.03 0.04 0.05 0.04 0.05 0.08 0.08
0.02 0.02 0.02 0.02 0.05 0.08 0.07 0.05 0.04 0.05 0.08 0.08 0.06 0.07 0.07 0.06 0.08 0.09 0.08 0.07 0.07 0.10 0.11 0.12 0.13 0.13 0.13 0.16 0.19 0.16 0.15 0.19 0.21 0.16 0.12 0.09 0.06 0.04 0.04 0.05 0.05 0.07 0.09
0.02 0.02 0.02 0.02 0.03 0.07 0.09 0.08 0.07 0.06 0.08 0.13 0.13 0.10 0.08 0.07 0.08 0.10 0.10 0.10 0.09 0.10 0.12 0.13 0.12 0.13 0.13 0.13 0.17 0.20 0.16 0.15 0.17 0.16 0.11 0.08 0.06 0.04 0.04 0.04 0.04 0.05 0.05
0.02 0.02 0.02 0.03 0.03 0.05 0.07 0.08 0.08 0.08 0.09 0.11 0.16 0.16 0.16 0.13 0.10 0.08 0.09 0.10 0.10 0.11 0.11 0.12 0.13 0.13 0.14 0.14 0.13 0.17 0.19 0.18 0.16 0.14 0.10 0.07 0.05 0.03 0.03 0.04 0.04 0.04 0.04
0.02 0.02 0.02 0.02 0.03 0.04 0.04 0.05 0.07 0.08 0.08 0.07 0.08 0.09 0.10 0.11 0.12 0.12 0.11 0.11 0.10 0.11 0.12 0.12 0.12 0.13 0.14 0.13 0.13 0.14 0.15 0.15 0.14 0.15 0.12 0.09 0.06 0.04 0.02 0.02 0.04 0.05 0.05
0.02 0.02 0.02 0.02 0.02 0.03 0.04 0.04 0.04 0.06 0.07 0.07 0.06 0.07 0.07 0.07 0.07 0.06 0.08 0.08 0.08 0.09 0.10 0.11 0.11 0.12 0.13 0.12 0.12 0.13 0.13 0.12 0.11 0.12 0.13 0.12 0.09 0.06 0.04 0.03 0.03 0.05 0.06
0.02 0.02 0.02 0.02 0.02 0.02 0.03 0.03 0.03 0.04 0.06 0.07 0.07 0.05 0.05 0.06 0.07 0.05 0.05 0.06 0.06 0.06 0.07 0.08 0.08 0.09 0.11 0.12 0.12 0.12 0.10 0.09 0.09 0.09 0.10 0.10 0.10 0.09 0.08 0.05 0.04 0.04 0.05
0.02 0.02 0.02 0.02 0.02 0.01 0.02 0.03 0.02 0.02 0.04 0.06 0.07 0.06 0.06 0.05 0.06 0.07 0.06 0.05 0.05 0.05 0.06 0.07 0.07 0.07 0.08 0.09 0.11 0.11 0.08 0.07 0.07 0.08 0.07 0.07 0.07 0.08 0.08 0.07 0.05 0.04 0.04
0.02 0.03 0.03 0.03 0.02 0.02 0.02 0.03 0.03 0.03 0.03 0.04 0.05 0.05 0.05 0.05 0.06 0.06 0.05 0.05 0.05 0.05 0.06 0.06 0.07 0.07 0.07 0.07 0.08 0.08 0.08 0.07 0.06 0.07 0.07 0.06 0.05 0.05 0.07 0.07 0.06 0.04 0.03
0.02 0.02 0.02 0.02 0.02 0.02 0.02 0.02 0.03 0.03 0.03 0.04 0.06 0.06 0.05 0.04 0.05 0.05 0.04 0.03 0.03 0.04 0.06 0.07 0.06 0.06 0.07 0.07 0.07 0.06 0.06 0.06 0.06 0.06 0.07 0.06 0.06 0.05 0.05 0.06 0.06 0.05 0.04
0.02 0.02 0.02 0.02 0.02 0.02 0.02 0.02 0.02 0.03 0.03 0.03 0.04 0.05 0.06 0.05 0.05 0.05 0.04 0.03 0.03 0.03 0.05 0.06 0.06 0.06 0.07 0.07 0.07 0.06 0.06 0.06 0.05 0.05 0.06 0.06 0.06 0.05 0.05 0.06 0.07 0.05 0.05
0.01 0.02 0.02 0.02 0.02 0.02 0.02 0.02 0.02 0.02 0.03 0.03 0.03 0.04 0.05 0.05 0.04 0.04 0.03 0.03 0.03 0.04 0.04 0.05 0.06 0.06 0.07 0.07 0.06 0.06 0.06 0.06 0.06 0.05 0.05 0.05 0.06 0.06 0.06 0.06 0.08 0.08 0.07
0.02 0.02 0.02 0.02 0.02 0.02 0.02 0.02 0.02 0.02 0.02 0.02 0.03 0.03 0.04 0.04 0.04 0.04 0.04 0.03 0.03 0.04 0.04 0.05 0.06 0.07 0.07 0.07 0.07 0.07 0.06 0.06 0.06 0.06 0.06 0.05 0.06 0.06 0.06 0.07 0.08 0.09 0.08
0.02 0.02 0.02 0.02 0.03 0.03 0.02 0.02 0.02 0.02 0.02 0.02 0.02 0.02 0.03 0.03 0.03 0.04 0.04 0.04 0.03 0.04 0.04 0.05 0.06 0.06 0.06 0.06 0.07 0.08 0.07 0.07 0.07 0.07 0.07 0.06 0.06 0.06 0.04 0.05 0.06 0.07 0.07
0.02 0.02 0.02 0.03 0.03 0.02 0.02 0.03 0.03 0.02 0.02 0.01 0.01 0.01 0.02 0.02 0.02 0.03 0.03 0.03 0.03 0.03 0.03 0.04 0.05 0.05 0.06 0.06 0.06 0.07 0.07 0.07 0.08 0.08 0.07 0.06 0.05 0.05 0.04 0.04 0.05 0.05 0.05
0.01 0.02 0.02 0.03 0.03 0.03 0.03 0.03 0.04 0.03 0.03 0.02 0.01 0.01 0.02 0.02 0.02 0.02 0.02 0.02 0.02 0.02 0.02 0.03 0.04 0.04 0.05 0.06 0.06 0.06 0.07 0.08 0.08 0.09 0.08 0.06 0.05 0.05 0.04 0.04 0.04 0.04 0.04
0.01 0.01 0.01 0.02 0.02 0.02 0.03 0.03 0.04 0.04 0.04 0.04 0.03 0.02 0.03 0.03 0.03 0.03 0.02 0.02 0.03 0.02 0.02 0.02 0.03 0.03 0.03 0.04 0.05 0.06 0.07 0.08 0.08 0.07 0.07 0.06 0.05 0.05 0.05 0.05 0.04 0.04 0.04
0.01 0.01 0.01 0.01 0.02 0.02 0.02 0.03 0.03 0.05 0.05 0.05 0.04 0.04 0.04 0.05 0.05 0.05 0.03 0.04 0.04 0.03 0.03 0.03 0.03 0.03 0.02 0.03 0.04 0.05 0.06 0.07 0.08 0.08 0.07 0.06 0.06 0.06 0.06 0.05 0.04 0.04 0.04
0.00 0.00 0.01 0.01 0.01 0.01 0.01 0.02 0.04 0.05 0.05 0.05 0.06 0.06 0.05 0.06 0.06 0.05 0.04 0.04 0.05 0.05 0.04 0.05 0.05 0.05 0.04 0.03 0.03 0.04 0.05 0.07 0.08 0.08 0.08 0.07 0.07 0.06 0.06 0.06 0.05 0.05 0.04
0.00 0.00 0.00 0.00 0.00 0.01 0.01 0.02 0.03 0.04 0.04 0.05 0.07 0.07 0.06 0.06 0.07 0.05 0.04 0.04 0.05 0.05 0.04 0.04 0.05 0.05 0.05 0.05 0.05 0.04 0.04 0.05 0.06 0.06 0.08 0.09 0.09 0.08 0.07 0.06 0.06 0.05 0.04
0.00 0.00 0.00 0.00 0.00 0.01 0.01 0.02 0.03 0.04 0.05 0.05 0.07 0.08 0.08 0.08 0.07 0.05 0.04 0.04 0.05 0.06 0.05 0.04 0.04 0.04 0.04 0.05 0.05 0.05 0.06 0.06 0.06 0.06 0.07 0.09 0.10 0.10 0.09 0.07 0.07 0.06 0.06
0.00 0.00 0.00 0.00 0.01 0.01 0.01 0.02 0.03 0.03 0.04 0.05 0.06 0.08 0.09 0.09 0.07 0.05 0.04 0.04 0.04 0.06 0.07 0.06 0.05 0.05 0.05 0.05 0.06 0.06 0.06 0.06 0.06 0.06 0.07 0.07 0.07 0.08 0.09 0.08 0.08 0.07 0.07
0.00 0.00 0.00 0.00 0.01 0.01 0.01 0.02 0.02 0.03 0.04 0.04 0.06 0.08 0.08 0.07 0.05 0.04 0.04 0.03 0.03 0.04 0.05 0.06 0.05 0.05 0.06 0.05 0.05 0.05 0.05 0.05 0.05 0.05 0.06 0.07 0.07 0.07 0.08 0.08 0.07 0.06 0.06
MSLP
1032.21 1032.28 1032.36 1032.48 1032.65 1032.84 1033.03 1033.18 1033.26 1033.26 1033.18 1033.03 1032.84 1032.63 1032.41 1032.19 1031.97 1031.72 1031.45 1031.12 1030.75 1030.35 1029.93 1029.52 1029.15 1028.81 1028.52 1028.24 1027.94 1027.58 1027.13 1026.57 1025.88 1025.08 1024.21 1023.31 1022.44 1021.62 1020.90 1020.28 1019.75 1019.27 1018.83
1031.99 1032.12 1032.24 1032.39 1032.56 1032.75 1032.93 1033.08 1033.17 1033.20 1033.15 1033.03 1032.86 1032.65 1032.41 1032.15 1031.86 1031.54 1031.18 1030.80 1030.38 1029.94 1029.52 1029.13 1028.78 1028.48 1028.22 1027.98 1027.71 1027.38 1026.95 1026.40 1025.74 1024.97 1024.13 1023.27 1022.43 1021.65 1020.95 1020.35 1019.84 1019.39 1018.98
1031.69 1031.90 1032.08 1032.27 1032.45 1032.65 1032.83 1032.99 1033.09 1033.14 1033.12 1033.03 1032.88 1032.67 1032.41 1032.11 1031.76 1031.36 1030.93 1030.47 1029.99 1029.52 1029.08 1028.68 1028.34 1028.05 1027.80 1027.57 1027.32 1027.01 1026.60 1026.10 1025.48 1024.77 1024.00 1023.20 1022.42 1021.68 1021.02 1020.43 1019.93 1019.48 1019.08
1031.33 1031.65 1031.92 1032.15 1032.37 1032.58 1032.77 1032.93 1033.05 1033.11 1033.11 1033.05 1032.91 1032.70 1032.42 1032.07 1031.66 1031.20 1030.69 1030.17 1029.63 1029.11 1028.63 1028.20 1027.84 1027.54 1027.27 1027.03 1026.77 1026.47 1026.09 1025.63 1025.08 1024.46 1023.77 1023.06 1022.36 1021.68 1021.04 1020.47 1019.95 1019.48 1019.05
1030.97 1031.41 1031.78 1032.09 1032.35 1032.57 1032.76 1032.92 1033.04 1033.11 1033.12 1033.06 1032.92 1032.70 1032.40 1032.01 1031.55 1031.03 1030.46 1029.87 1029.29 1028.72 1028.19 1027.73 1027.32 1026.97 1026.67 1026.38 1026.10 1025.79 1025.44 1025.02 1024.54 1024.00 1023.42 1022.81 1022.19 1021.57 1020.97 1020.39 1019.85 1019.34 1018.87
1030.69 1031.25 1031.72 1032.09 1032.39 1032.64 1032.83 1032.98 1033.08 1033.14 1033.13 1033.05 1032.89 1032.65 1032.31 1031.88 1031.38 1030.81 1030.20 1029.57 1028.94 1028.33 1027.76 1027.25 1026.79 1026.38 1026.01 1025.67 1025.34 1025.01 1024.65 1024.27 1023.85 1023.40 1022.91 1022.40 1021.86 1021.30 1020.73 1020.16 1019.59 1019.03 1018.50
1030.54 1031.21 1031.76 1032.19 1032.52 1032.77 1032.95 1033.08 1033.14 1033.16 1033.11 1032.99 1032.78 1032.49 1032.11 1031.64 1031.10 1030.50 1029.86 1029.20 1028.55 1027.92 1027.32 1026.76 1026.25 1025.77 1025.33 1024.92 1024.53 1024.15 1023.77 1023.40 1023.02 1022.63 1022.23 1021.79 1021.33 1020.83 1020.29 1019.73 1019.14 1018.55 1017.97
1030.57 1031.31 1031.91 1032.37 1032.71 1032.95 1033.10 1033.18 1033.19 1033.14 1033.03 1032.84 1032.57 1032.22 1031.78 1031.26 1030.69 1030.06 1029.41 1028.74 1028.09 1027.45 1026.83 1026.24 1025.68 1025.14 1024.62 1024.13 1023.67 1023.22 1022.81 1022.43 1022.06 1021.71 1021.36 1020.99 1020.59 1020.14 1019.64 1019.09 1018.51 1017.91 1017.31
1030.76 1031.52 1032.14 1032.60 1032.93 1033.14 1033.24 1033.26 1033.20 1033.07 1032.87 1032.60 1032.24 1031.81 1031.31 1030.74 1030.12 1029.48 1028.82 1028.16 1027.51 1026.87 1026.25 1025.65 1025.05 1024.46 1023.88 1023.31 1022.76 1022.25 1021.78 1021.36 1020.98 1020.64 1020.31 1019.98 1019.63 1019.23 1018.78 1018.26 1017.70 1017.12 1016.53
1031.08 1031.82 1032.41 1032.84 1033.13 1033.29 1033.33 1033.29 1033.15 1032.93 1032.64 1032.27 1031.82 1031.30 1030.72 1030.09 1029.44 1028.77 1028.10 1027.45 1026.81 1026.19 1025.57 1024.96 1024.34 1023.70 1023.06 1022.42 1021.80 1021.22 1020.68 1020.21 1019.80 1019.44 1019.12 1018.81 1018.48 1018.13 1017.72 1017.26 1016.76 1016.22 1015.68
1031.46 1032.14 1032.67 1033.04 1033.27 1033.37 1033.36 1033.24 1033.03 1032.73 1032.35 1031.88 1031.34 1030.73 1030.08 1029.38 1028.68 1027.98 1027.29 1026.64 1026.01 1025.39 1024.78 1024.16 1023.51 1022.85 1022.16 1021.46 1020.77 1020.12 1019.52 1018.98 1018.53 1018.13 1017.80 1017.49 1017.19 1016.88 1016.52 1016.12 1015.69 1015.22 1014.75
1031.84 1032.43 1032.87 1033.17 1033.33 1033.37 1033.30 1033.13 1032.86 1032.49 1032.03 1031.48 1030.86 1030.17 1029.43 1028.67 1027.91 1027.17 1026.45 1025.78 1025.14 1024.51 1023.89 1023.25 1022.58 1021.88 1021.14 1020.40 1019.65 1018.94 1018.28 1017.69 1017.19 1016.77 1016.41 1016.10 1015.81 1015.52 1015.22 1014.89 1014.53 1014.15 1013.76
1032.16 1032.65 1033.00 1033.22 1033.32 1033.31 1033.19 1032.97 1032.65 1032.24 1031.72 1031.11 1030.41 1029.64 1028.83 1028.00 1027.18 1026.39 1025.63 1024.92 1024.24 1023.58 1022.92 1022.25 1021.55 1020.81 1020.03 1019.24 1018.45 1017.69 1016.99 1016.36 1015.82 1015.36 1014.98 1014.66 1014.38 1014.12 1013.86 1013.58 1013.29 1012.99 1012.69
1032.41 1032.80 1033.07 1033.21 1033.26 1033.20 1033.05 1032.80 1032.45 1032.00 1031.44 1030.77 1030.02 1029.19 1028.31 1027.42 1026.53 1025.67 1024.85 1024.08 1023.34 1022.63 1021.92 1021.19 1020.44 1019.65 1018.83 1018.00 1017.17 1016.38 1015.64 1014.99 1014.42 1013.94 1013.55 1013.22 1012.95 1012.70 1012.47 1012.24 1012.00 1011.76 1011.52
1032.60 1032.91 1033.10 1033.18 1033.18 1033.09 1032.91 1032.64 1032.26 1031.78 1031.18 1030.48 1029.67 1028.79 1027.85 1026.90 1025.94 1025.02 1024.13 1023.29 1022.47 1021.68 1020.90 1020.10 1019.28 1018.43 1017.56 1016.69 1015.83 1015.01 1014.26 1013.59 1013.01 1012.52 1012.12 1011.79 1011.51 1011.27 1011.06 1010.85 1010.66 1010.46 1010.27
1032.76 1033.00 1033.13 1033.17 1033.12 1033.00 1032.80 1032.50 1032.10 1031.58 1030.95 1030.20 1029.35 1028.41 1027.42 1026.40 1025.39 1024.40 1023.44 1022.51 1021.62 1020.74 1019.87 1018.99 1018.09 1017.18 1016.25 1015.34 1014.45 1013.61 1012.85 1012.17 1011.58 1011.09 1010.69 1010.35 1010.07 1009.84 1009.63 1009.44 1009.26 1009.09 1008.92
1032.95 1033.13 1033.21 1033.20 1033.12 1032.96 1032.72 1032.39 1031.94 1031.38 1030.70 1029.89 1028.99 1028.00 1026.95 1025.88 1024.81 1023.76 1022.73 1021.74 1020.77 1019.81 1018.85 1017.88 1016.90 1015.92 1014.93 1013.97 1013.04 1012.18 1011.40 1010.72 1010.13 1009.63 1009.23 1008.89 1008.61 1008.37 1008.16 1007.97 1007.80 1007.64 1007.50
1033.17 1033.31 1033.34 1033.29 1033.17 1032.96 1032.67 1032.29 1031.78 1031.15 1030.40 1029.53 1028.56 1027.51 1026.41 1025.29 1024.17 1023.06 1021.98 1020.93 1019.89 1018.86 1017.82 1016.78 1015.72 1014.66 1013.61 1012.59 1011.63 1010.73 1009.93 1009.23 1008.63 1008.12 1007.71 1007.36 1007.08 1006.84 1006.63 1006.44 1006.28 1006.14 1006.02
1033.42 1033.51 1033.51 1033.41 1033.24 1032.98 1032.63 1032.17 1031.58 1030.87 1030.03 1029.08 1028.03 1026.92 1025.76 1024.59 1023.43 1022.29 1021.17 1020.07 1018.98 1017.90 1016.80 1015.68 1014.56 1013.43 1012.31 1011.23 1010.21 1009.27 1008.43 1007.69 1007.07 1006.54 1006.11 1005.75 1005.46 1005.22 1005.02 1004.85 1004.71 1004.60 1004.52
1033.66 1033.71 1033.67 1033.53 1033.31 1032.99 1032.56 1032.02 1031.34 1030.53 1029.60 1028.56 1027.43 1026.25 1025.04 1023.83 1022.63 1021.46 1020.31 1019.19 1018.06 1016.93 1015.78 1014.61 1013.42 1012.23 1011.04 1009.90 1008.81 1007.81 1006.91 1006.12 1005.45 1004.89 1004.43 1004.06 1003.76 1003.52 1003.34 1003.19 1003.09 1003.03 1003.01
1033.84 1033.86 1033.77 1033.60 1033.32 1032.94 1032.45 1031.82 1031.06 1030.16 1029.13 1028.01 1026.81 1025.56 1024.30 1023.05 1021.82 1020.63 1019.46 1018.31 1017.16 1015.99 1014.80 1013.58 1012.33 1011.07 1009.82 1008.60 1007.44 1006.36 1005.38 1004.53 1003.80 1003.19 1002.69 1002.29 1001.99 1001.77 1001.61 1001.52 1001.47 1001.48 1001.54
1033.93 1033.91 1033.79 1033.57 1033.26 1032.83 1032.27 1031.58 1030.74 1029.76 1028.67 1027.47 1026.21 1024.92 1023.61 1022.33 1021.08 1019.86 1018.67 1017.50 1016.32 1015.12 1013.89 1012.61 1011.31 1009.98 1008.65 1007.35 1006.11 1004.95 1003.89 1002.96 1002.15 1001.49 1000.95 1000.53 1000.23 1000.02 999.91 999.87 999.90 1000.00 1000.14
1033.91 1033.85 1033.70 1033.46 1033.11 1032.64 1032.04 1031.30 1030.41 1029.38 1028.24 1027.01 1025.71 1024.38 1023.05 1021.74 1020.47 1019.23 1018.01 1016.80 1015.59 1014.34 1013.06 1011.73 1010.36 1008.97 1007.57 1006.18 1004.85 1003.61 1002.46 1001.45 1000.58 999.85 999.28 998.84 998.54 998.36 998.30 998.33 998.45 998.63 998.87
1033.81 1033.71 1033.54 1033.27 1032.89 1032.40 1031.77 1031.00 1030.09 1029.05 1027.89 1026.64 1025.33 1024.00 1022.66 1021.33 1020.04 1018.77 1017.51 1016.26 1014.99 1013.69 1012.35 1010.95 1009.51 1008.04 1006.57 1005.11 1003.70 1002.37 1001.15 1000.07 999.14 998.37 997.76 997.31 997.02 996.88 996.87 996.97 997.17 997.44 997.78
1033.66 1033.53 1033.33 1033.03 1032.63 1032.12 1031.48 1030.70 1029.79 1028.75 1027.61 1026.38 1025.09 1023.77 1022.44 1021.11 1019.79 1018.49 1017.19 1015.88 1014.55 1013.17 1011.75 1010.28 1008.77 1007.22 1005.67 1004.15 1002.67 1001.28 1000.01 998.87 997.89 997.09 996.47 996.02 995.75 995.64 995.68 995.85 996.12 996.48 996.89
1033.53 1033.37 1033.12 1032.79 1032.37 1031.83 1031.18 1030.40 1029.51 1028.50 1027.39 1026.20 1024.95 1023.67 1022.36 1021.04 1019.71 1018.38 1017.03 1015.66 1014.25 1012.80 1011.29 1009.74 1008.14 1006.53 1004.92 1003.33 1001.81 1000.37 999.06 997.90 996.90 996.09 995.46 995.02 994.77 994.70 994.79 995.01 995.34 995.75 996.21
Thickness
5484 5485 5487 5489 5491 5494 5496 5498 5500 5503 5506 5509 5512 5516 5518 5521 5524 5528 5532 5536 5540 5544 5548 5552 5557 5562 5566 5569 5573 5575 5578 5580 5582 5585 5587 5592 5596 5599 5602 5604 5606 5608 5610
5472 5474 5475 5476 5477 5479 5482 5485 5487 5489 5491 5494 5497 5500 5502 5506 5510 5514 5518 5522 5527 5531 5535 5539 5544 5548 5553 5557 5560 5564 5566 5569 5572 5574 5575 5579 5584 5589 5593 5595 5597 5600 5601
5460 5461 5463 5463 5463 5465 5468 5471 5473 5475 5477 5480 5483 5486 5489 5492 5495 5499 5504 5508 5513 5517 5521 5526 5530 5535 5539 5544 5548 5551 5555 5558 5560 5563 5565 5567 5573 5576 5581 5585 5588 5590 5592
5446 5448 5450 5451 5451 5452 5454 5457 5459 5461 5463 5465 5468 5471 5474 5477 5480 5484 5489 5493 5498 5503 5507 5511 5516 5522 5526 5531 5535 5539 5543 5547 5550 5551 5554 5557 5562 5563 5569 5573 5577 5580 5582
5434 5436 5437 5438 5439 5440 5441 5443 5445 5447 5449 5451 5453 5456 5459 5462 5466 5470 5474 5479 5483 5489 5493 5498 5503 5508 5514 5518 5522 5526 5531 5535 5539 5541 5543 5546 5549 5552 5557 5563 5566 5568 5572
5423 5424 5425 5426 5427 5427 5428 5429 5431 5433 5435 5437 5439 5443 5445 5449 5452 5456 5460 5465 5469 5475 5479 5484 5489 5495 5500 5505 5510 5514 5519 5524 5528 5531 5534 5536 5539 5542 5544 5550 5553 5557 5561
5410 5412 5413 5413 5414 5415 5416 5417 5418 5419 5421 5423 5425 5428 5431 5435 5438 5442 5447 5451 5456 5461 5466 5471 5476 5482 5487 5492 5497 5502 5507 5512 5516 5520 5523 5526 5529 5532 5535 5538 5541 5544 5548
5399 5400 5401 5401 5402 5402 5403 5404 5405 5406 5407 5409 5412 5415 5418 5421 5424 5428 5432 5437 5441 5447 5453 5458 5463 5469 5474 5479 5484 5490 5495 5500 5505 5508 5511 5514 5517 5520 5524 5527 5529 5532 5536
5389 5389 5389 5389 5389 5389 5390 5391 5392 5393 5395 5397 5399 5402 5405 5407 5411 5416 5420 5424 5429 5434 5440 5445 5450 5456 5461 5465 5471 5477 5483 5488 5493 5496 5499 5502 5505 5509 5513 5517 5520 5522 5526
5378 5377 5378 5378 5379 5378 5378 5379 5380 5381 5382 5384 5386 5389 5392 5395 5399 5403 5408 5412 5417 5422 5427 5433 5438 5444 5449 5453 5458 5464 5470 5475 5480 5484 5488 5490 5494 5497 5501 5504 5508 5511 5515
5367 5366 5367 5367 5367 5367 5367 5368 5369 5370 5371 5373 5374 5376 5379 5383 5387 5391 5395 5400 5404 5409 5415 5421 5426 5432 5437 5442 5447 5452 5457 5462 5466 5472 5476 5480 5483 5486 5489 5492 5495 5499 5503
5357 5356 5355 5355 5356 5356 5357 5357 5358 5358 5359 5361 5363 5365 5368 5372 5376 5380 5384 5388 5392 5397 5403 5409 5414 5420 5425 5430 5435 5439 5444 5449 5453 5459 5464 5467 5471 5475 5477 5480 5483 5487 5490
5347 5345 5345 5345 5345 5345 5346 5346 5346 5347 5349 5350 5352 5355 5358 5361 5365 5368 5372 5377 5381 5385 5391 5397 5402 5408 5413 5418 5423 5427 5432 5437 5442 5447 5452 5455 5458 5462 5465 5468 5472 5475 5479
5337 5336 5335 5335 5335 5335 5335 5335 5336 5337 5338 5340 5342 5344 5347 5350 5354 5357 5361 5365 5369 5374 5380 5385 5391 5396 5401 5406 5410 5415 5420 5426 5431 5436 5440 5444 5447 5450 5454 5457 5460 5464 5467
5330 5328 5326 5325 5325 5325 5325 5325 5326 5326 5327 5329 5332 5334 5337 5340 5343 5346 5350 5355 5359 5365 5369 5374 5379 5384 5389 5394 5398 5403 5408 5413 5418 5423 5427 5432 5435 5438 5442 5445 5449 5452 5455
5320 5319 5317 5316 5316 5315 5315 5315 5316 5316 5317 5319 5321 5324 5327 5330 5333 5336 5340 5344 5349 5354 5359 5363 5368 5373 5378 5383 5387 5392 5396 5401 5405 5410 5415 5418 5422 5426 5430 5433 5437 5441 5444
5311 5309 5307 5306 5306 5306 5306 5305 5306 5307 5308 5310 5312 5314 5316 5319 5323 5327 5330 5335 5340 5344 5349 5353 5358 5362 5366 5370 5375 5379 5383 5387 5392 5396 5401 5406 5410 5413 5416 5420 5424 5428 5433
5302 5300 5298 5298 5297 5297 5296 5297 5297 5298 5299 5301 5302 5304 5306 5309 5313 5317 5321 5325 5330 5334 5339 5344 5348 5351 5355 5359 5363 5366 5370 5373 5378 5383 5388 5392 5396 5399 5403 5408 5412 5415 5419
5293 5290 5289 5288 5287 5288 5288 5288 5289 5289 5290 5292 5294 5296 5298 5301 5304 5308 5312 5317 5321 5325 5330 5334 5338 5341 5345 5347 5351 5354 5357 5360 5365 5370 5375 5379 5383 5388 5392 5396 5399 5403 5407
5286 5283 5281 5279 5279 5279 5279 5279 5280 5280 5281 5283 5285 5288 5290 5293 5296 5300 5304 5308 5312 5317 5321 5325 5328 5331 5334 5337 5340 5343 5346 5349 5354 5358 5363 5368 5372 5375 5379 5383 5387 5390 5394
5279 5277 5274 5272 5272 5271 5271 5271 5271 5272 5274 5275 5278 5281 5284 5286 5289 5292 5296 5300 5304 5307 5311 5315 5318 5321 5324 5328 5331 5333 5335 5338 5342 5346 5350 5355 5359 5364 5368 5371 5375 5379 5382
5272 5269 5267 5265 5264 5263 5263 5263 5264 5265 5267 5268 5271 5274 5276 5279 5283 5285 5288 5291 5294 5298 5301 5303 5307 5310 5313 5317 5321 5323 5326 5328 5331 5335 5339 5343 5347 5351 5355 5359 5363 5366 5369
5265 5262 5260 5258 5256 5255 5255 5255 5256 5257 5259 5261 5263 5266 5269 5272 5275 5278 5281 5283 5285 5288 5290 5293 5296 5300 5303 5306 5310 5313 5315 5318 5320 5323 5328 5332 5335 5339 5342 5346 5350 5353 5355
5257 5255 5253 5251 5249 5248 5248 5248 5249 5250 5251 5253 5256 5258 5261 5265 5268 5270 5272 5274 5276 5277 5280 5283 5287 5290 5293 5296 5299 5302 5304 5307 5309 5312 5316 5320 5323 5326 5330 5332 5335 5338 5341
5249 5247 5245 5243 5242 5241 5241 5241 5242 5242 5243 5245 5248 5251 5254 5257 5259 5262 5262 5264 5266 5268 5272 5275 5277 5280 5283 5286 5290 5294 5296 5298 5301 5303 5305 5308 5311 5313 5316 5319 5321 5324 5327
5241 5239 5237 5236 5234 5233 5232 5233 5234 5234 5235 5238 5240 5242 5245 5248 5251 5252 5254 5256 5258 5261 5264 5266 5268 5271 5274 5278 5282 5285 5288 5290 5292 5293 5295 5297 5299 5301 5304 5307 5309 5311 5313